Back to catalog

STARLINK-11201

AliveCommunicationsVLEO
NORAD 60113·PAYLOAD·🇺🇸 United States

Launched Jun 24, 2024 from Vandenberg Space Force Base

Loading…

Next Passes (next 24 hours)

TLE

FreshSource: CelesTrak SupGP

Epoch: Sep 14, 2026, 14:56 UTC

1 60113C 24118A   26257.62270833 -.00018788  00000+0 -15481-3 0  2572
2 60113  53.1573  10.2061 0001158  74.9301 266.7115 15.69711339    10

Track STARLINK-11201 in real time with AllMySat

Download on the App Store